sat.trackr.live / text

‹ back to catalog

STARLINK-31753

NORAD 59484 · 2024-071A

PAYLOAD ACTIVE UNKNOWN

§ Identity

Operator
Country
US
Launch date
2024-04-13
Launch site
AFETR
Launch vehicle
Mass (kg)
RCS (m²)

Purposes: comms

External: N2YO · Heavens-Above · Gunter

§ Orbital elements

Epoch: 2026-09-21T04:30:50.317632Z

Period
94.27 min
Inclination
43.0027°
Eccentricity
0.0001089
Mean motion
15.27571121 rev/d
Perigee alt
482.3 km
Apogee alt
483.8 km
Semi-major
6,861.2 km
B*
8.9003e-5
RAAN
315.7524°
Arg perigee
275.5117°
Mean anomaly
84.5610°
Rev number
13,810

§ Raw data

STARLINK-317531 59484U 24071A   26264.18808238  .00002187  00000+0  89003-4 0  99932 59484  43.0027 315.7524 0001089 275.5117  84.5610 15.27571121138100

JSON: /api/v1/satellites/59484 · /tle

For live sub-satellite position, see the globe view (requires WebGL).

§ Visibility from observer

Set your observer location to see the next 7 days of passes ≥ 10°. The values pass through the URL so the page stays shareable.

No JS? Fill the form by hand. The geolocation button needs JavaScript.